Theta_e
317 316 315 316 317 319 319 318 320 320 320 321 322 322 322 321 321 321 321 321 322 324 324 325 325 326 326 325 324 323 323 322 319 319 319 317 316 317 316 315 315 315 316 316 316 316 316 316 316 316 316 317 317 317 319 316 311 310 309 308 308 306 304 302 302 301 300 300 300 299 299 299 299 299 299 299 300 301 301 303 304 305 306 307 308
315 316 314 315 316 318 319 318 318 320 320 320 321 322 322 322 321 321 321 322 322 323 323 324 324 324 324 324 322 322 323 322 320 320 319 318 317 317 316 316 315 315 315 315 315 315 315 315 315 315 314 314 314 314 316 313 308 307 306 306 305 303 302 302 301 301 300 300 300 300 300 299 299 298 298 298 298 298 299 299 300 301 302 302 304
313 316 313 312 313 315 318 319 318 318 319 320 320 321 320 321 321 321 321 322 322 322 322 322 322 322 322 321 320 320 322 323 321 319 319 319 319 318 317 317 316 315 315 314 314 314 314 313 313 313 312 312 312 311 312 311 309 307 305 303 302 302 301 300 300 300 300 300 300 300 300 299 298 297 297 297 297 296 297 297 298 298 298 299 299
311 314 313 309 309 311 313 316 315 314 316 318 320 319 319 319 320 321 320 322 323 323 322 322 321 322 320 319 319 319 320 321 320 319 318 319 320 319 319 317 315 314 314 313 313 313 312 312 312 311 310 310 309 309 308 307 307 305 304 303 302 300 300 299 299 299 298 298 297 297 297 297 296 296 296 296 296 298 300 301 301 298 298 298 298
309 311 313 309 305 309 310 311 311 311 313 317 319 319 319 318 319 320 319 319 321 322 322 322 321 321 320 319 319 319 318 319 319 319 319 320 319 319 319 319 317 314 313 313 312 311 311 310 309 308 307 306 305 304 303 302 301 301 301 301 300 299 298 298 298 297 297 297 296 296 296 296 295 295 295 295 296 298 301 303 303 301 301 303 301
306 308 311 309 305 306 307 307 308 311 314 317 319 320 320 319 319 320 319 318 320 321 322 321 321 320 319 319 318 318 318 317 318 319 319 320 319 319 319 318 317 314 313 312 311 310 309 307 305 303 302 301 300 299 299 298 298 298 298 298 298 297 298 298 297 297 296 296 295 295 295 295 295 295 295 295 295 296 297 298 299 299 300 303 303
304 306 309 309 305 304 305 306 307 310 314 317 318 319 320 319 318 320 319 319 320 321 321 321 321 320 319 319 319 319 318 318 318 318 318 318 318 317 316 316 315 313 313 312 310 306 304 302 300 299 299 298 298 298 298 297 297 297 297 297 297 297 297 297 296 296 295 295 295 295 295 295 295 296 296 296 296 296 296 296 296 297 297 298 299
303 304 306 306 304 302 304 304 305 309 314 317 318 318 320 319 318 319 318 319 319 319 321 321 321 321 320 319 319 319 318 318 317 317 317 316 315 314 313 313 312 313 312 310 305 301 299 299 298 299 299 298 298 298 297 297 297 297 297 297 296 296 296 296 295 295 295 295 296 296 296 296 296 296 296 296 296 296 297 296 296 297 297 297 297
302 303 304 303 302 302 302 303 304 307 312 315 315 316 319 319 318 319 318 318 317 317 318 318 319 320 320 320 319 318 317 316 315 315 314 314 313 313 312 311 311 311 308 304 301 299 299 299 298 299 299 298 298 298 297 297 297 297 297 296 296 295 295 296 296 295 296 296 296 296 296 296 296 296 296 296 296 296 296 296 297 296 297 297 298
301 302 302 302 301 301 302 302 302 305 310 312 310 312 316 318 318 318 317 316 315 314 314 315 316 316 317 317 317 317 316 314 314 313 313 313 312 312 311 310 309 307 304 301 299 298 298 298 299 300 299 298 298 298 298 297 297 296 296 296 295 295 296 298 297 295 296 295 295 296 296 296 296 296 296 296 296 296 296 297 297 297 297 297 298
301 301 302 301 301 301 301 302 301 304 309 309 306 308 313 316 317 317 317 316 315 315 315 315 315 315 315 314 314 314 314 313 313 313 312 312 311 311 310 309 307 305 302 300 299 298 298 297 298 299 298 298 298 298 298 297 296 296 296 296 296 296 296 297 296 295 295 295 296 296 296 296 296 296 296 296 297 296 296 296 298 300 300 298 299
301 301 301 301 301 301 302 302 302 302 305 306 305 306 311 314 316 316 315 315 315 314 314 313 313 313 313 312 312 312 312 312 311 311 311 309 308 308 307 306 305 303 301 300 299 300 299 297 297 297 297 297 297 298 298 298 297 296 296 296 296 296 295 295 295 295 295 295 296 296 296 296 296 296 297 297 298 299 299 298 299 302 303 302 302
300 301 301 301 301 301 301 301 301 301 301 302 303 305 309 313 315 316 315 315 315 314 314 313 313 311 311 311 311 311 310 310 309 308 308 306 304 304 304 304 305 304 302 301 301 301 301 298 297 297 296 297 297 298 299 299 297 296 297 296 296 296 295 295 295 295 295 295 296 296 296 296 297 300 301 301 302 304 304 304 303 303 303 303 303
301 300 301 301 301 301 301 301 301 301 301 301 302 305 309 313 315 315 315 315 316 315 315 317 317 314 313 313 313 312 311 309 308 307 306 305 303 303 303 302 303 303 303 304 303 302 301 298 297 297 297 296 296 297 299 298 296 296 297 296 296 295 295 295 294 294 295 295 295 295 296 299 302 304 304 304 305 305 305 305 305 305 304 303 302
305 301 300 301 301 301 301 301 301 300 301 301 302 305 310 314 315 314 313 313 313 313 315 319 318 317 317 317 315 314 314 312 309 307 306 304 303 303 302 302 302 302 303 304 303 301 300 299 298 298 297 296 296 296 297 297 296 296 296 296 295 295 294 294 294 294 294 295 295 295 297 302 304 305 305 304 304 305 304 304 304 305 304 304 304
304 300 300 301 301 300 301 301 301 301 301 301 303 305 310 314 315 314 313 314 313 311 316 320 317 317 319 318 317 316 317 315 311 309 307 304 303 303 302 302 301 301 302 303 302 302 300 299 300 299 298 297 296 297 296 296 296 295 296 295 295 295 294 294 294 294 294 294 295 295 296 299 300 302 304 305 304 304 304 304 304 304 303 303 304
301 301 300 301 301 301 300 301 301 302 302 302 305 306 308 310 312 314 316 316 312 307 311 315 314 316 319 318 318 316 314 313 312 311 309 305 304 305 304 302 301 301 301 301 301 302 300 299 300 300 299 298 297 297 297 296 296 295 295 295 294 294 294 293 294 294 294 294 295 295 295 295 295 297 300 302 303 302 303 303 303 303 303 303 303
301 300 300 301 301 301 300 300 300 301 301 302 304 306 306 305 307 312 314 311 308 305 304 305 306 310 313 313 314 312 308 307 310 312 310 309 307 305 303 303 302 301 301 301 301 301 299 298 299 300 300 298 297 297 297 297 296 295 295 294 294 294 293 293 293 294 294 294 294 295 294 294 294 294 295 297 297 298 300 302 302 302 303 303 303
301 301 301 301 301 301 301 300 300 300 301 301 303 304 304 302 302 306 307 306 308 309 307 303 302 304 306 306 307 307 305 304 306 307 308 310 309 306 304 303 303 303 302 302 302 301 299 298 298 300 300 298 297 297 297 297 295 294 295 294 293 293 293 293 293 293 294 294 294 294 294 294 294 294 294 295 295 294 297 301 302 302 302 302 302
303 301 301 301 301 300 301 301 301 300 300 301 302 302 301 301 301 302 302 302 305 307 306 304 304 303 302 304 305 305 304 304 305 305 305 308 309 308 305 304 304 304 304 304 303 301 300 299 298 300 300 299 297 297 297 296 295 295 294 294 293 293 293 293 293 293 293 293 294 294 294 294 294 295 295 295 295 295 297 300 302 302 303 302 302
307 304 301 301 302 301 301 302 303 302 300 300 301 301 301 301 301 301 301 301 302 302 302 303 303 302 301 303 306 307 306 305 305 305 305 306 307 308 305 304 304 304 304 304 303 302 300 300 299 299 300 298 297 297 297 296 295 295 294 293 293 293 293 293 293 293 293 293 294 294 294 294 295 295 296 296 296 297 299 301 302 302 302 302 302
313 308 304 302 303 303 301 301 302 301 300 300 300 300 300 300 301 301 301 301 301 301 301 301 301 301 300 301 305 306 307 305 303 304 305 305 306 307 306 304 304 304 304 304 303 302 301 300 299 299 299 298 297 297 297 296 295 295 295 294 293 293 293 293 293 293 293 293 294 294 294 294 295 295 296 296 296 299 302 302 302 302 302 302 302
318 313 308 304 301 302 301 301 301 301 300 300 300 300 300 300 300 300 301 301 301 301 301 301 301 300 300 300 301 302 303 303 301 300 301 301 303 305 305 304 303 304 304 304 303 302 301 300 299 299 298 298 298 297 297 296 296 296 295 294 294 293 293 293 293 293 293 293 293 294 294 294 295 296 296 296 298 301 302 302 302 302 301 301 300
320 318 315 309 304 301 301 301 301 302 301 300 300 300 300 300 300 300 300 300 301 301 301 301 300 300 300 299 300 300 299 300 300 299 299 299 300 301 303 303 303 303 304 304 303 302 301 300 299 299 298 298 298 297 297 296 296 296 296 295 294 294 294 293 293 293 293 293 293 293 294 294 295 295 295 295 297 301 302 302 302 301 299 299 300
320 320 319 316 311 305 301 301 301 302 302 301 301 301 300 300 300 300 301 301 301 301 301 301 300 300 300 300 300 300 299 299 299 299 299 299 299 300 300 300 301 302 304 304 303 302 302 301 300 299 299 298 298 297 297 296 296 296 296 296 295 294 294 294 293 293 293 293 293 293 294 294 295 295 295 295 296 299 301 300 300 299 299 300 301
321 321 321 320 317 312 305 302 302 302 303 302 302 301 301 301 300 300 301 300 301 301 301 301 301 301 301 300 300 300 300 300 299 299 300 299 299 299 299 299 300 303 305 304 303 303 302 302 301 300 299 299 298 298 297 297 296 296 296 296 295 294 294 294 294 293 293 293 293 293 294 294 294 295 295 296 296 296 298 299 299 300 300 301 301
322 322 321 320 320 317 312 307 303 302 302 303 302 302 302 301 301 300 301 301 301 301 301 301 301 301 301 301 301 301 300 300 300 301 300 300 299 298 298 299 299 303 305 303 303 303 303 302 301 300 300 299 299 298 298 297 297 296 296 296 295 295 295 295 294 294 294 293 293 294 294 294 294 295 296 296 296 295 297 299 300 300 301 301 301
323 322 321 321 321 320 317 313 308 304 302 302 303 302 302 302 301 300 301 301 301 301 301 301 302 302 302 302 303 303 302 302 302 301 300 300 300 299 298 298 297 300 301 300 301 302 302 302 301 299 299 299 298 298 298 297 297 297 297 296 296 296 296 296 295 295 295 294 294 294 294 294 294 295 296 296 295 296 296 298 300 300 300 299 299
323 322 321 321 321 321 320 318 315 310 305 303 302 302 301 301 301 301 300 300 301 301 301 301 302 302 302 303 303 303 303 303 302 301 301 300 300 299 298 298 297 297 298 297 299 301 301 301 299 298 298 298 298 298 298 298 298 297 297 297 296 296 296 296 296 296 296 295 295 294 294 294 294 294 295 296 296 296 296 297 298 299 298 298 298
324 322 321 321 322 321 321 320 319 316 311 307 304 302 300 301 301 301 301 301 301 301 301 301 302 302 302 303 303 303 304 303 302 301 301 300 300 300 300 299 297 297 297 296 298 300 301 299 297 296 297 298 298 298 298 298 298 298 297 297 297 297 297 297 296 296 296 296 296 295 295 295 294 294 295 296 297 297 297 297 297 298 298 298 298
324 322 320 321 322 322 322 321 320 319 317 313 309 305 302 301 301 301 301 300 300 301 301 301 301 302 302 302 303 303 303 303 302 302 301 300 300 301 301 300 299 299 298 297 298 300 299 298 297 296 297 298 299 298 298 298 298 298 298 298 298 298 297 296 296 296 296 296 296 296 295 295 295 295 296 297 298 298 298 298 298 298 298 298 298
324 322 320 321 322 322 322 322 322 321 319 317 315 311 307 303 301 300 300 300 300 301 301 301 301 301 302 302 302 302 302 302 303 302 302 302 301 300 300 301 300 300 299 299 298 299 298 297 296 296 297 298 299 299 298 298 298 298 298 298 298 297 296 295 296 296 295 295 296 296 295 295 295 297 297 298 298 298 298 298 298 299 299 299 299
324 322 320 321 323 322 323 323 323 322 321 320 318 316 313 309 305 302 300 299 300 301 301 300 300 301 301 301 302 302 301 301 301 302 303 303 302 300 300 302 302 301 300 299 298 298 298 297 297 297 298 299 299 299 299 299 299 298 298 298 297 295 295 296 296 294 293 294 295 295 295 296 296 297 298 298 298 298 298 299 299 299 299 299 299
323 322 321 321 322 323 323 323 323 323 322 321 320 318 316 314 311 308 304 301 300 300 301 301 300 300 300 300 300 302 302 300 299 300 303 304 303 301 301 302 302 301 301 299 298 298 298 298 298 298 299 299 299 299 300 299 298 297 297 296 295 293 294 295 294 292 292 293 294 295 296 297 297 298 298 299 299 298 298 299 299 299 299 299 299
323 323 322 322 322 323 323 323 323 323 323 323 322 320 318 316 315 312 310 306 303 301 301 301 300 301 302 301 300 301 301 301 299 299 300 302 302 300 300 302 302 302 301 300 299 299 297 298 299 299 299 300 300 300 300 299 297 296 297 298 297 295 294 293 292 292 292 293 294 296 296 296 297 298 299 299 299 298 298 299 299 299 299 299 299
324 324 324 324 323 323 322 323 323 323 322 323 323 323 322 321 319 317 314 311 308 304 302 301 300 301 302 303 301 300 300 301 301 299 299 299 300 300 299 301 302 302 302 301 300 298 297 298 299 299 299 300 301 301 300 299 297 297 299 300 299 297 294 292 292 292 292 293 295 296 296 297 298 299 299 299 299 299 299 299 299 299 299 299 299
324 324 324 324 324 323 323 322 323 323 323 323 323 323 323 323 323 322 320 317 314 310 306 303 301 300 302 303 302 301 300 301 301 301 300 299 300 301 301 301 301 301 301 301 300 298 297 298 299 299 300 301 301 300 299 298 297 297 299 300 299 298 295 293 292 292 291 292 294 294 296 297 298 299 299 299 299 299 299 299 299 300 300 300 300
324 324 324 324 324 324 324 323 322 322 322 323 323 322 323 323 323 323 323 322 320 316 312 308 304 301 300 301 301 301 300 300 301 300 300 299 299 300 301 301 300 300 300 300 300 298 298 299 299 299 300 301 300 299 298 297 296 298 299 299 299 299 297 293 292 292 292 291 293 294 296 297 298 298 299 299 299 299 299 299 299 300 300 300 300
324 324 325 324 324 324 324 324 323 323 322 322 322 322 322 323 323 323 323 323 323 320 316 312 308 304 302 301 301 300 300 300 300 300 299 299 299 299 300 300 300 300 300 301 301 299 299 299 299 299 300 300 299 298 297 295 295 298 299 299 299 300 298 294 292 291 291 291 292 294 295 296 298 299 299 299 299 299 299 299 300 300 300 300 300
324 324 325 325 325 325 324 324 324 323 323 322 322 322 322 322 322 323 323 323 323 323 320 316 312 308 305 303 301 300 300 300 300 300 299 299 299 299 299 299 300 300 301 301 301 300 299 299 300 299 299 299 297 296 295 294 295 297 299 298 298 298 297 294 292 291 291 291 292 293 295 297 299 299 300 299 299 299 299 299 300 300 300 300 300
324 325 325 325 325 325 325 324 324 324 323 323 322 321 321 322 322 322 322 323 323 323 323 321 317 313 309 306 303 301 300 300 299 299 299 299 298 298 298 298 298 299 299 300 300 299 299 299 298 298 297 297 296 294 294 293 294 296 298 298 298 297 295 293 292 291 290 291 293 293 295 298 299 299 299 299 299 299 299 299 300 300 300 300 300
324 325 325 325 325 325 325 325 325 324 324 323 322 322 322 322 322 322 322 322 322 322 323 322 321 318 314 310 307 303 301 300 300 299 299 298 298 297 297 297 297 297 296 297 297 297 296 296 296 296 296 295 294 294 293 293 293 296 298 298 298 297 294 292 291 291 291 292 293 294 295 297 299 299 299 299 299 299 299 299 300 300 300 300 299
325 325 325 325 325 325 325 325 325 325 324 324 323 322 322 322 322 322 322 322 322 322 322 322 322 321 319 315 311 307 304 302 300 299 299 298 298 297 297 297 297 296 296 296 295 295 295 294 294 294 294 294 294 293 293 292 293 295 296 297 298 297 294 291 290 291 291 292 294 295 295 297 298 299 299 299 299 299 299 299 300 299 299 299 298
325 325 325 325 326 326 326 326 326 325 325 324 323 322 322 322 322 322 322 322 321 321 322 322 322 322 321 318 314 310 307 305 303 301 300 300 299 298 297 297 297 297 296 296 296 296 296 295 295 294 294 294 294 293 293 292 293 294 294 296 298 297 294 291 289 290 291 293 295 295 295 296 297 299 299 299 299 299 299 299 299 299 299 298 298
325 325 325 326 327 327 328 327 327 326 325 324 323 321 321 322 322 322 322 322 322 321 321 321 321 321 322 321 317 313 309 307 304 303 302 301 300 298 298 297 297 297 297 297 297 297 297 297 296 296 295 294 293 293 292 292 292 292 293 295 297 296 294 292 290 290 291 293 295 296 295 295 297 299 299 299 299 299 299 299 299 299 299 299 299
325 326 326 327 328 329 329 329 328 327 326 324 323 321 321 321 321 321 321 321 322 321 321 321 321 321 322 321 320 316 312 308 305 304 302 301 300 299 298 298 297 297 297 297 298 299 300 299 298 297 296 295 293 293 292 292 292 292 293 294 295 295 294 292 290 290 291 293 295 295 295 295 297 299 299 298 298 298 299 299 299 299 299 298 298
326 326 327 328 329 329 329 329 329 328 326 325 323 320 320 321 321 321 321 321 321 321 321 321 320 321 322 322 321 319 315 310 307 305 303 301 301 299 298 297 297 297 297 297 298 299 299 299 297 296 296 295 294 293 292 292 291 291 292 294 295 296 294 291 290 290 292 293 295 295 295 296 298 299 298 298 297 298 299 300 299 299 298 298 299
326 326 327 328 329 329 329 329 329 328 326 325 323 320 320 321 321 321 321 321 321 321 321 321 320 320 321 322 321 321 318 314 309 306 304 302 300 299 298 297 297 297 297 297 297 297 297 296 296 296 297 296 295 293 292 291 290 290 291 294 297 296 293 290 290 291 292 293 294 294 295 297 298 298 297 297 297 299 299 299 299 299 298 298 299
326 326 327 328 329 330 330 330 330 329 327 324 322 321 321 322 322 322 322 322 322 321 321 321 320 320 321 322 321 321 320 317 313 309 306 303 301 300 298 297 296 296 296 296 296 295 295 295 296 297 298 297 296 293 292 291 290 290 291 295 297 295 292 290 290 291 291 292 292 294 296 296 296 296 296 297 298 299 299 299 299 299 298 298 299
326 327 327 328 328 329 330 329 328 329 328 325 323 323 323 323 323 323 322 322 322 322 321 321 320 321 321 322 321 321 320 319 315 311 308 306 303 302 300 297 296 296 296 296 295 295 295 296 297 298 298 297 295 294 292 291 291 291 292 294 296 295 293 291 290 290 291 291 292 294 295 294 295 296 297 297 298 298 298 299 299 299 298 299 300
327 327 328 328 329 329 330 329 328 327 327 326 324 324 324 324 324 323 322 322 322 322 322 321 321 321 321 321 322 321 321 320 316 312 310 308 305 303 301 298 297 297 297 296 295 295 296 297 298 298 297 295 295 294 293 292 292 293 294 295 296 296 294 292 291 290 291 291 291 293 294 295 296 297 297 298 298 298 298 299 299 299 299 299 300
Wind_Speed
6 6 4 5 5 6 5 3 6 6 4 7 9 7 6 7 7 6 4 5 6 6 6 7 6 7 9 12 8 4 5 7 8 9 9 8 9 9 9 10 10 10 11 11 11 11 11 12 12 12 12 12 12 12 10 10 13 15 16 16 16 16 15 15 15 15 14 13 12 12 11 11 11 11 10 10 9 9 9 10 10 11 12 12 11
6 6 4 4 5 5 6 4 5 7 6 7 10 9 6 5 5 7 6 7 8 6 6 6 6 7 10 9 6 6 10 7 7 9 10 9 7 7 7 8 8 8 9 10 10 10 10 10 10 10 10 10 10 10 10 13 16 16 16 16 16 15 15 15 16 16 15 15 14 14 14 13 13 12 12 12 12 12 11 10 11 11 12 13 14
7 7 5 2 4 4 6 5 3 6 7 9 11 9 7 6 7 9 9 9 9 8 8 9 9 7 7 9 7 8 11 7 8 11 11 10 10 10 8 7 6 7 8 8 9 8 9 9 9 9 9 9 9 10 11 14 17 18 18 18 17 16 16 16 16 16 16 16 15 15 15 15 15 13 13 13 13 13 13 12 12 12 12 13 13
6 7 7 3 3 4 5 5 3 4 8 12 12 9 7 6 7 9 9 9 9 10 11 11 11 7 6 12 11 11 12 10 10 9 11 11 11 10 8 8 6 7 8 7 8 8 8 9 9 10 10 10 11 11 12 14 15 17 18 19 19 18 18 17 17 17 17 17 16 16 16 16 15 14 13 12 12 12 12 12 12 12 12 12 12
4 7 7 5 2 4 3 5 5 6 9 12 11 8 7 6 7 8 8 8 8 9 10 10 11 9 8 12 11 8 7 8 9 7 9 11 11 8 8 9 7 8 9 7 8 8 9 9 10 10 11 11 11 12 13 13 14 15 16 18 20 20 19 18 17 17 16 16 15 15 14 14 13 13 13 13 12 11 11 12 13 13 12 11 12
3 6 7 5 2 3 3 5 7 8 11 11 9 10 10 7 7 7 7 8 8 8 9 8 10 12 10 10 9 6 5 5 4 4 4 6 5 5 7 8 9 12 11 9 9 10 10 10 10 11 11 11 11 11 12 13 13 14 14 15 17 19 19 18 17 16 15 15 14 14 14 14 14 14 14 14 13 13 13 13 14 15 13 13 13
4 5 7 5 2 3 3 4 6 9 13 12 8 10 12 10 8 7 7 9 9 9 11 10 9 11 10 11 10 7 10 8 3 3 2 3 2 1 2 5 8 12 13 13 12 11 10 10 10 10 10 10 10 11 11 11 12 12 12 13 15 17 18 17 16 15 15 15 15 15 15 15 15 15 15 15 15 15 15 15 16 16 15 15 15
4 5 7 5 3 4 4 4 6 9 13 12 7 9 14 15 11 9 9 9 9 9 11 11 10 10 8 10 10 7 8 7 5 4 1 2 3 4 3 4 5 5 9 14 14 12 10 9 10 9 8 10 10 10 10 10 11 11 12 12 14 16 17 17 16 16 16 16 16 15 14 14 13 13 14 14 15 15 15 16 16 16 16 16 16
4 6 7 6 5 5 5 6 8 9 10 10 9 11 15 16 14 11 10 9 9 9 9 9 9 10 8 9 11 9 9 8 6 5 3 4 5 6 7 6 5 5 8 11 12 12 12 12 11 10 9 11 11 10 10 10 11 12 12 12 12 14 16 17 18 18 18 17 14 12 12 12 12 12 13 13 14 15 16 16 16 16 16 17 17
6 6 7 7 6 6 6 7 8 10 9 8 10 13 16 17 17 15 11 10 10 10 9 9 8 8 6 7 8 8 9 8 6 7 5 4 3 5 7 6 5 8 8 9 9 10 11 13 13 13 13 12 11 10 10 11 11 12 12 13 13 15 17 18 19 19 18 15 12 10 10 11 12 13 14 15 15 16 17 17 17 16 16 17 18
7 6 7 8 7 7 8 7 7 9 9 8 9 13 15 16 16 15 13 12 12 11 11 12 11 10 8 7 6 3 4 4 3 3 3 2 2 1 3 5 6 7 7 8 9 8 8 10 10 12 15 14 13 11 11 10 11 13 14 15 17 18 18 19 19 19 16 12 10 10 11 12 13 14 15 16 16 17 18 18 17 16 15 16 17
7 7 8 8 8 8 8 9 7 8 9 10 11 13 15 16 15 13 11 11 10 10 11 12 12 11 9 9 7 5 5 5 2 0 1 2 2 4 3 5 7 7 7 8 10 10 10 10 8 9 13 14 15 15 16 15 15 18 18 18 20 19 19 19 19 18 14 11 10 10 11 13 14 15 15 15 16 16 16 18 18 17 16 16 17
7 7 8 8 9 9 8 9 8 8 8 10 12 14 16 16 15 12 10 10 9 8 9 7 6 6 7 8 7 6 6 5 2 1 2 4 3 2 1 2 5 8 10 8 9 11 11 12 9 7 10 12 13 15 17 20 21 21 21 20 21 20 19 19 18 16 12 10 10 11 13 14 14 14 14 15 16 15 15 16 17 17 17 17 18
8 7 7 8 9 9 9 9 8 9 9 10 12 14 16 15 12 10 8 10 10 9 9 7 3 1 2 5 5 5 7 6 3 1 2 4 6 6 5 5 3 6 9 7 6 8 9 12 11 8 10 12 11 10 11 16 21 22 22 21 20 20 19 17 15 14 12 11 11 13 14 14 14 14 14 15 15 15 14 14 15 16 17 18 19
7 6 6 8 9 8 9 10 10 10 10 10 11 14 16 13 10 8 6 6 6 9 11 8 7 6 4 3 5 5 6 6 5 3 1 2 2 2 4 6 7 5 4 6 10 11 10 13 14 11 11 13 12 12 12 15 19 21 22 21 20 20 18 15 13 12 11 12 13 14 15 13 13 13 13 14 15 15 15 15 16 16 17 17 18
6 7 7 7 9 9 8 10 11 11 10 10 10 11 12 11 11 12 10 6 5 7 10 8 9 10 7 5 6 6 5 3 3 1 2 2 2 2 2 2 7 5 1 5 10 12 12 13 15 16 15 16 17 16 15 16 18 21 22 21 20 19 17 15 12 12 12 13 14 15 15 14 14 14 13 14 14 15 16 17 17 18 18 17 17
7 8 8 7 9 10 8 8 9 10 10 11 10 8 7 8 11 13 12 10 7 6 8 8 8 8 6 5 3 3 4 3 3 2 2 1 1 7 6 2 4 4 1 5 7 10 12 11 13 17 17 17 18 17 16 17 19 22 22 21 21 21 19 16 14 12 13 13 14 15 16 16 16 16 16 15 15 16 17 17 18 18 19 19 18
8 8 9 8 9 10 10 7 6 7 8 10 11 9 7 8 11 11 11 10 6 5 5 6 8 7 4 3 2 2 2 1 2 2 2 3 5 8 7 4 4 3 2 5 7 11 13 9 8 12 15 17 18 17 16 17 19 21 22 21 22 23 22 19 16 14 14 14 15 16 17 18 19 19 19 18 18 18 18 18 19 19 18 19 19
9 8 8 9 9 9 10 8 6 6 5 6 8 8 7 7 9 10 9 9 8 7 6 6 6 6 5 3 2 2 2 1 1 0 1 4 5 6 6 5 6 6 6 6 10 15 15 11 7 6 10 15 17 16 15 16 19 21 21 21 22 23 22 20 18 16 15 16 16 17 18 20 20 21 21 21 21 21 19 19 20 20 19 19 19
9 8 8 9 9 8 9 9 7 6 5 5 5 6 6 6 6 6 6 7 7 7 7 7 6 6 8 7 5 3 3 2 1 0 2 4 4 5 6 5 7 10 12 11 12 16 16 15 11 3 7 15 17 15 15 18 21 20 20 21 22 22 21 20 18 17 17 17 17 18 19 20 21 22 22 22 23 22 20 19 19 20 19 20 20
9 8 7 7 9 7 7 8 7 6 6 5 5 5 6 6 5 5 5 5 5 5 5 6 6 7 8 9 10 7 2 3 4 4 1 3 2 2 1 4 7 10 14 13 12 15 17 16 14 7 8 16 18 15 15 19 22 21 19 20 21 21 20 19 17 17 17 17 18 19 20 21 22 23 23 23 23 22 20 19 19 19 19 20 20
9 9 8 6 7 7 5 6 6 6 6 5 5 5 5 5 5 5 5 5 5 5 5 5 5 6 7 7 10 11 7 6 5 6 5 3 3 1 2 4 7 10 14 12 12 16 15 12 10 6 11 17 17 14 16 20 22 21 19 20 21 22 21 19 17 16 17 18 19 20 22 23 23 24 24 23 23 21 19 19 20 20 20 20 20
8 9 9 7 6 6 6 6 6 6 6 6 5 5 5 5 5 5 5 5 5 5 5 5 5 5 5 5 6 7 6 5 3 4 4 4 5 4 1 4 6 8 11 11 13 15 9 6 6 6 11 16 15 14 18 22 21 21 21 21 24 24 21 19 17 16 17 18 20 21 23 24 24 24 24 24 22 19 19 19 20 21 21 21 20
6 8 8 8 6 5 6 6 5 5 6 6 6 6 5 5 5 5 5 5 5 5 5 5 5 4 4 3 3 4 4 2 1 1 2 2 4 4 3 5 5 2 6 11 12 10 6 6 7 8 11 14 14 16 20 22 21 22 23 24 26 26 23 20 18 17 17 19 21 22 24 25 25 25 25 25 22 20 19 20 20 21 22 22 21
3 4 5 7 7 5 5 5 5 5 5 6 6 6 5 5 5 5 5 5 4 4 4 4 4 3 3 2 2 2 2 1 1 1 1 1 1 2 2 4 4 1 2 7 7 7 8 8 8 10 13 15 16 17 19 21 21 21 22 24 27 27 25 23 20 18 19 19 21 22 23 24 25 26 25 25 25 23 21 21 22 21 21 22 21
1 1 0 3 6 6 6 5 5 5 5 5 6 6 5 5 5 4 4 4 4 4 4 4 3 3 2 1 1 1 0 1 1 1 1 1 2 3 2 2 2 1 1 4 4 5 8 8 8 11 13 15 17 18 19 20 20 20 20 24 27 26 25 24 21 21 21 21 20 20 21 22 24 26 26 25 26 27 25 23 23 21 21 21 21
3 4 4 1 3 5 5 5 4 4 5 5 6 6 6 6 5 5 4 4 4 3 3 3 2 2 2 1 1 0 0 0 1 1 2 2 2 3 3 2 1 2 3 5 4 4 6 8 11 11 11 14 16 18 19 19 19 19 20 24 26 25 25 24 24 25 23 21 20 21 22 22 24 25 26 26 27 29 27 24 22 21 21 21 21
6 5 4 3 3 4 4 5 5 3 4 4 5 5 4 5 5 4 4 4 3 3 2 2 1 1 1 0 1 0 1 1 2 2 2 3 2 2 3 3 2 1 3 4 4 6 6 9 13 11 10 14 16 17 18 17 17 18 21 24 25 23 23 24 26 26 23 22 22 22 23 25 26 27 28 28 28 28 29 25 22 21 22 22 23
9 7 4 3 1 2 3 4 4 3 3 3 4 5 3 3 4 3 3 3 3 3 2 2 1 1 1 1 1 1 1 2 2 3 3 3 3 2 1 2 3 3 4 5 6 6 6 10 14 14 12 14 15 16 17 16 16 17 21 24 23 22 21 24 26 26 24 25 25 24 25 27 28 29 29 28 26 27 28 27 25 24 25 27 27
10 8 5 4 2 1 1 2 2 2 3 2 2 3 2 2 2 2 2 2 2 2 2 1 1 1 2 2 2 2 2 3 3 3 3 3 3 3 2 3 4 3 4 7 7 6 7 11 14 15 14 14 15 16 16 15 15 17 21 23 22 21 21 23 25 24 24 26 26 26 27 29 30 29 27 26 26 26 26 26 26 27 28 29 28
10 9 6 5 4 3 1 0 1 1 2 2 3 2 0 1 1 1 1 1 1 1 1 1 1 2 3 3 4 3 3 4 3 3 3 3 3 4 4 6 7 6 6 9 10 8 9 13 15 15 14 14 14 15 15 15 16 17 20 22 22 21 22 23 21 21 23 25 25 26 27 29 30 27 26 26 26 27 26 23 23 24 25 26 26
11 10 7 6 5 4 3 2 1 1 1 2 2 2 2 2 1 2 2 2 3 3 2 3 3 3 4 4 5 4 4 5 5 5 5 4 4 4 4 7 8 10 10 11 13 14 13 14 16 16 14 14 14 15 16 16 16 18 19 20 20 22 24 22 19 20 22 23 25 26 27 28 27 26 27 27 25 27 27 21 19 20 22 23 25
12 11 9 7 6 5 4 3 2 1 1 2 2 2 3 4 4 4 3 4 5 4 4 4 4 5 5 6 6 6 5 6 7 7 6 7 8 8 7 7 8 10 11 12 15 17 16 15 16 16 14 13 14 16 16 16 18 19 19 19 20 22 23 21 21 24 24 22 23 24 26 26 26 27 28 26 25 28 28 22 19 21 22 23 26
13 13 11 8 7 6 5 5 3 2 2 2 2 3 3 4 5 5 5 5 6 6 7 6 6 7 7 6 7 8 7 6 6 6 6 7 9 9 8 8 9 11 13 14 15 17 19 17 16 16 14 13 16 17 15 16 20 22 21 22 23 23 21 21 24 27 26 22 21 22 24 25 26 28 27 25 25 28 27 22 20 22 24 26 28
14 14 12 11 9 8 7 7 6 5 4 4 3 4 4 5 5 6 6 6 6 7 8 8 8 9 9 7 7 9 10 8 7 6 7 9 11 11 10 10 12 13 14 15 15 17 20 19 17 17 16 15 17 16 14 18 22 23 25 26 26 24 24 25 27 28 26 24 22 22 23 24 25 26 24 24 26 27 26 23 21 23 25 27 29
16 15 14 13 12 11 9 9 8 7 7 7 6 6 6 7 7 7 7 7 7 8 9 10 10 10 11 11 9 10 11 11 8 8 9 10 11 12 10 10 11 12 13 15 17 18 20 20 19 17 17 17 18 16 18 22 23 24 26 27 26 26 27 28 28 27 28 25 22 23 23 22 22 22 23 25 26 25 25 24 22 24 27 28 28
17 17 16 15 15 15 13 10 10 10 9 8 8 8 8 9 10 10 10 10 9 9 9 10 10 11 12 14 13 12 13 13 11 10 10 11 11 11 11 10 12 13 13 16 18 18 18 20 20 19 17 17 18 19 22 24 25 26 26 26 27 28 29 30 28 27 28 26 24 23 22 21 21 22 23 24 24 24 24 23 23 25 27 28 28
18 17 17 16 16 17 16 14 13 12 11 10 10 9 9 10 11 11 12 12 12 12 11 11 11 11 13 15 16 15 15 15 13 12 12 12 12 13 13 14 14 14 15 18 19 18 18 19 19 19 17 17 19 22 24 24 26 27 25 26 28 30 31 32 30 28 29 28 25 22 22 23 21 19 21 23 25 25 24 23 24 26 27 27 27
19 19 19 18 17 17 18 17 16 15 14 13 12 11 11 11 12 12 13 14 14 14 14 13 13 13 13 15 16 17 16 16 15 15 14 14 14 14 15 16 16 16 16 18 18 18 18 18 18 18 18 18 21 24 25 25 26 26 26 28 31 32 33 33 33 31 30 29 26 23 24 23 17 16 20 24 25 25 24 24 25 26 26 27 28
20 20 19 20 19 18 18 18 18 18 17 17 15 14 14 14 14 14 14 15 16 16 16 16 15 15 15 15 16 17 18 17 17 17 16 16 15 16 16 16 16 17 18 19 19 19 18 18 18 18 19 21 23 25 26 26 26 27 27 28 30 33 34 34 33 33 32 30 27 26 24 19 15 17 20 23 24 24 24 25 24 24 25 27 30
21 20 20 20 20 20 19 19 19 20 21 20 18 15 15 15 15 16 16 17 18 18 18 18 17 16 16 16 17 17 18 19 19 19 18 17 16 16 17 17 18 19 19 19 19 19 19 19 19 20 21 24 24 25 27 26 26 27 28 28 30 33 34 34 34 32 31 29 27 26 23 17 17 20 21 23 24 24 24 25 24 24 26 30 33
23 22 22 21 21 22 21 20 20 21 22 23 20 17 15 15 16 18 19 19 20 20 20 20 20 19 18 18 17 17 18 19 20 21 20 18 17 17 18 18 19 20 21 21 21 21 21 22 22 22 23 25 25 25 26 26 26 27 28 29 32 33 34 35 36 33 29 26 26 27 24 20 20 22 23 24 25 24 25 25 25 27 30 32 33
24 24 23 23 23 24 23 22 22 22 23 24 23 19 16 15 17 19 20 21 22 22 23 22 22 21 20 20 19 18 18 19 21 22 21 19 17 18 19 19 19 20 22 22 22 22 23 24 24 24 24 25 25 25 25 26 26 27 28 29 31 33 34 35 37 35 30 24 24 27 27 25 23 23 24 25 26 26 26 26 26 28 29 28 25
25 25 25 25 25 25 25 24 24 25 25 25 24 21 18 17 18 19 20 22 23 24 25 24 24 23 22 22 21 20 20 20 21 21 21 20 18 17 18 19 20 21 22 22 23 23 23 24 25 25 24 24 24 24 25 25 26 27 28 29 30 33 34 34 36 36 30 24 23 27 29 28 25 23 23 25 27 28 26 26 28 29 27 23 18
26 26 26 26 26 26 26 25 26 26 26 26 25 23 20 19 19 20 21 22 24 26 27 27 26 25 24 23 23 22 21 21 21 22 23 22 21 19 19 19 20 21 22 22 22 23 22 22 24 24 22 22 24 24 23 24 26 27 29 30 30 32 33 33 34 34 29 24 22 26 30 29 25 23 24 26 29 29 27 27 31 32 27 21 19
26 26 26 26 26 26 26 26 27 27 27 28 27 25 22 21 21 21 23 24 25 27 29 29 29 27 25 24 23 23 22 22 22 23 24 24 23 22 21 21 22 22 22 23 23 22 21 21 23 23 21 21 24 25 23 24 25 26 28 30 31 32 33 33 33 32 29 23 21 25 30 28 25 25 26 28 30 29 27 28 33 34 28 21 19
27 27 27 27 27 27 28 28 28 28 29 29 28 26 23 22 22 23 24 25 27 28 30 31 31 29 26 25 24 24 23 23 23 23 24 24 24 24 24 24 24 24 24 25 24 24 24 24 26 25 22 22 25 25 24 24 25 25 25 28 30 32 32 33 33 31 27 22 19 23 28 27 26 26 29 32 31 28 26 30 35 34 27 20 16
28 27 27 28 28 27 28 29 29 29 29 29 28 26 25 24 23 23 25 26 28 30 31 32 33 31 28 26 25 25 24 23 22 22 23 24 24 25 25 25 25 26 26 26 26 27 28 29 28 26 24 23 25 25 24 24 25 24 25 27 30 30 29 31 32 30 27 24 22 22 25 26 26 29 34 35 31 27 28 33 36 33 25 18 16
28 28 28 29 29 28 28 30 30 30 30 29 28 27 26 25 24 25 25 27 29 31 32 33 34 32 29 27 26 26 25 24 23 22 22 22 23 24 24 24 25 26 27 26 26 27 29 28 27 27 25 25 25 25 24 24 25 24 25 28 29 27 27 29 30 29 28 27 24 20 22 26 28 31 34 32 28 28 31 35 37 32 22 16 16
29 29 29 30 30 29 29 30 30 30 31 30 28 27 26 25 26 28 28 28 30 31 31 32 33 32 29 28 27 27 26 24 23 22 22 22 23 23 23 24 25 26 27 26 26 26 26 26 26 26 26 26 27 27 25 23 23 23 25 27 27 25 26 27 28 29 30 28 23 19 23 28 29 29 29 29 30 31 32 36 38 32 22 17 18
30 29 29 29 30 31 31 31 29 29 31 29 27 28 29 28 28 29 28 29 29 30 30 31 32 31 28 27 26 26 25 24 24 24 23 23 23 22 22 24 26 26 26 25 25 25 25 26 26 27 27 28 28 29 27 23 22 23 25 26 26 25 25 26 26 27 30 29 25 21 24 28 27 26 26 29 34 35 34 37 38 31 23 20 20
Wind_Direction
81 34 27 68 65 75 67 104 114 87 84 114 105 88 85 85 86 88 103 133 125 109 116 122 118 126 118 113 117 106 111 98 64 58 53 53 66 67 58 46 37 32 30 32 32 32 37 41 38 37 37 34 35 33 17 0 356 351 348 347 347 347 349 351 350 348 350 351 348 346 343 340 339 334 329 324 316 309 303 298 296 295 294 292 289
90 46 27 78 84 96 86 79 124 113 103 121 108 95 106 110 113 110 103 119 126 113 121 124 105 96 97 112 124 120 140 126 62 51 41 36 45 47 46 37 27 25 20 19 20 20 21 21 21 19 18 16 16 14 354 337 336 337 339 339 339 342 345 345 344 342 344 345 343 341 340 339 340 337 334 331 327 322 316 310 303 300 297 294 292
91 57 13 75 108 120 123 102 127 136 128 127 107 93 102 109 122 118 109 127 131 118 132 127 110 108 104 119 111 110 145 130 58 48 33 32 36 31 31 25 19 19 15 13 11 10 10 6 4 360 355 351 345 339 330 327 330 333 334 334 336 341 343 341 338 337 338 338 337 336 333 333 335 334 332 329 327 324 323 321 315 310 305 299 296
99 79 24 358 117 113 135 128 125 141 143 126 100 86 97 103 117 113 108 132 126 108 135 141 123 124 123 135 127 103 119 100 63 34 18 27 32 30 25 16 15 14 9 8 6 1 359 355 351 346 340 337 332 328 325 325 326 327 328 330 334 337 338 338 337 336 335 333 331 329 327 326 328 328 326 325 325 323 323 325 322 317 312 305 297
98 105 55 9 97 118 139 143 119 112 131 120 95 94 100 94 107 104 96 123 127 111 138 150 129 114 109 141 138 98 110 104 85 64 47 49 37 24 9 358 352 352 355 1 359 352 348 343 339 335 330 329 327 326 323 323 324 324 326 327 328 330 334 337 337 335 330 328 326 326 327 327 329 330 329 330 331 326 321 321 322 322 323 318 309
85 111 82 35 46 120 130 145 130 121 126 112 102 119 115 104 105 102 93 103 116 113 126 136 131 128 112 129 135 95 106 111 101 116 102 90 65 35 8 350 335 333 338 350 348 340 338 333 330 329 327 329 329 329 327 327 329 328 327 324 323 324 329 334 333 330 328 328 330 332 335 337 338 340 342 342 341 337 330 326 323 323 324 319 313
89 113 97 69 59 105 114 144 139 135 128 107 110 138 125 119 118 116 119 115 118 118 121 119 128 144 129 125 137 118 108 105 100 137 182 221 240 285 340 331 331 333 329 331 335 336 336 331 332 333 333 338 339 337 337 335 334 333 331 326 323 322 324 330 332 333 336 338 339 339 341 343 344 346 348 347 345 343 338 334 331 329 327 320 313
92 113 101 96 101 104 114 128 125 137 134 112 119 154 134 122 119 117 119 118 120 125 134 132 132 147 142 131 138 128 117 116 102 101 69 326 333 315 306 315 316 320 316 317 326 338 346 344 342 345 349 350 350 347 344 343 341 339 337 331 326 322 324 332 338 340 343 344 342 341 341 344 346 347 347 345 342 338 333 330 328 328 328 324 318
86 111 105 106 114 118 126 125 124 133 137 126 129 147 139 125 119 118 116 114 114 117 128 131 128 135 142 148 147 140 142 140 119 98 60 48 26 337 329 342 328 308 310 317 330 341 348 352 348 351 1 356 353 353 350 350 349 345 342 337 332 328 331 338 343 344 344 345 344 344 345 347 348 346 342 336 331 328 324 322 320 320 320 319 316
84 107 111 112 118 122 122 121 129 124 114 126 138 145 144 131 123 121 120 120 113 106 107 111 116 122 131 153 157 155 161 160 144 132 119 98 61 353 339 352 335 319 323 330 344 348 348 353 349 347 356 357 354 354 355 355 352 352 350 345 343 341 343 343 342 342 342 343 344 345 345 343 340 335 331 327 324 321 318 316 313 310 307 308 310
87 105 113 116 122 124 118 114 131 129 115 121 136 141 142 134 128 127 131 137 133 130 133 133 131 125 114 112 111 127 145 123 108 146 159 165 135 76 323 315 305 316 329 334 349 0 2 6 354 341 346 350 351 351 356 359 357 360 358 352 350 349 347 342 338 339 341 341 339 337 336 332 330 327 323 319 314 310 308 309 311 311 307 302 306
89 105 113 116 122 124 123 121 129 137 133 133 136 139 139 132 124 118 123 129 130 138 142 143 141 133 127 121 114 114 115 108 100 228 238 257 221 187 215 297 314 327 337 339 355 2 4 13 8 345 344 346 349 350 351 357 3 2 0 357 353 350 346 340 336 336 337 334 330 329 326 323 321 320 317 315 314 312 311 310 312 317 318 312 310
82 100 113 120 124 123 121 121 125 132 135 137 139 139 135 129 119 111 115 119 117 128 136 139 135 117 123 134 132 132 127 123 142 196 282 310 359 62 185 322 327 323 332 354 15 1 347 357 9 359 354 356 354 353 347 349 358 358 357 358 352 348 345 340 336 333 330 326 321 321 319 321 325 327 330 333 333 329 323 322 320 319 317 312 311
60 86 108 116 120 124 124 122 124 129 130 137 142 138 131 122 111 109 127 140 140 152 158 153 150 147 131 142 144 146 137 130 143 172 295 327 24 22 345 349 333 313 332 349 357 344 326 336 359 9 8 10 4 4 351 343 352 354 355 357 352 348 346 339 334 329 325 322 321 325 326 332 339 339 340 340 334 325 317 320 323 320 315 310 308
54 78 104 115 116 119 128 128 124 124 127 135 143 141 133 119 116 125 128 139 152 170 176 165 161 184 202 191 190 183 157 149 160 157 342 343 62 15 334 334 322 331 358 324 316 328 328 331 347 3 10 10 6 11 4 348 352 354 354 356 352 348 346 340 333 326 322 323 326 332 334 339 341 338 337 333 327 324 321 318 318 317 314 312 310
87 92 103 117 118 114 121 126 121 121 123 126 132 139 137 129 141 149 136 144 183 185 181 172 160 171 184 200 212 197 160 147 179 172 3 34 115 294 306 282 309 345 39 294 314 328 335 334 338 349 358 3 5 8 3 354 353 353 353 355 352 349 347 342 335 328 325 326 328 332 336 338 336 333 332 328 325 324 323 319 316 316 316 316 313
96 102 108 112 118 115 111 114 117 121 125 123 117 117 130 140 150 150 147 164 192 187 183 186 178 187 194 185 187 163 124 117 185 208 322 56 233 291 308 296 309 354 305 287 315 322 329 336 335 339 344 354 2 2 358 355 352 350 352 354 351 350 349 345 340 333 328 327 328 330 333 336 336 334 331 327 325 323 322 320 317 317 319 319 316
92 98 107 109 115 115 106 100 106 117 129 133 127 123 128 148 152 152 161 168 153 131 151 175 180 188 193 184 166 129 91 99 173 176 223 235 262 278 294 311 317 354 350 304 309 318 331 347 344 327 326 342 354 355 354 352 348 346 349 354 352 348 346 342 338 334 331 329 329 330 333 336 337 336 334 331 327 324 323 320 318 319 318 316 315
95 95 105 108 110 114 111 106 103 113 129 137 140 140 141 156 158 155 167 164 140 128 126 135 159 161 151 150 106 71 358 356 137 24 239 237 247 244 256 291 308 318 333 318 310 325 338 353 359 307 301 331 346 348 344 341 343 343 348 355 353 346 342 337 333 332 332 332 331 333 335 336 336 335 335 333 330 326 322 320 319 320 318 315 313
88 93 105 109 105 109 118 116 108 115 131 134 135 138 135 145 153 147 155 161 155 154 151 147 153 158 155 143 112 68 338 332 154 20 337 287 241 208 233 281 306 307 319 324 323 334 335 340 360 351 292 323 338 342 334 332 340 344 351 357 351 345 340 333 330 330 331 332 332 334 334 335 335 335 335 333 331 327 323 321 319 316 316 316 314
85 87 97 107 107 107 122 125 121 122 128 128 127 129 131 136 140 142 146 155 160 162 169 166 159 169 173 161 149 144 186 233 194 170 142 310 271 160 250 307 311 306 313 321 329 335 326 330 359 11 304 318 332 335 327 328 336 343 354 357 350 347 343 335 329 326 326 328 330 333 334 334 335 335 336 335 334 329 323 320 317 314 314 314 312
85 84 83 93 108 111 119 124 123 124 123 123 124 124 129 133 135 143 148 154 161 161 169 175 168 173 178 178 170 166 183 213 203 185 185 207 218 164 30 337 316 310 310 314 326 329 323 330 353 343 297 311 327 327 320 325 332 338 349 354 350 349 347 339 331 322 322 325 328 331 332 334 336 335 336 337 335 328 321 319 317 315 314 311 307
88 87 81 79 94 115 121 119 121 124 123 124 125 123 126 131 135 143 148 153 159 160 162 165 166 170 171 177 180 182 201 220 210 203 208 214 214 206 253 309 304 315 313 314 327 330 329 335 333 305 295 307 320 318 314 323 330 332 339 348 351 349 346 342 336 328 325 326 328 331 333 335 335 334 336 338 334 324 319 318 314 311 308 305 304
98 90 87 85 84 102 117 119 124 129 129 129 126 125 127 133 140 145 150 156 156 156 158 156 155 155 158 169 175 187 211 238 238 226 231 226 218 208 239 290 285 304 321 319 329 337 339 331 311 301 304 305 308 310 314 323 329 328 331 341 345 343 345 346 342 335 331 330 331 333 335 335 334 334 336 337 331 322 318 315 311 308 306 307 308
98 83 82 84 82 86 102 114 126 131 134 135 130 129 131 134 143 148 151 153 151 150 150 144 143 142 144 166 174 185 211 249 273 255 250 233 262 243 247 293 283 140 17 321 323 330 321 318 311 310 308 300 302 310 315 321 325 326 327 333 335 337 343 346 342 338 335 334 335 337 337 335 333 332 333 333 328 322 318 316 314 311 310 310 309
151 183 139 73 79 80 85 102 124 132 137 139 135 139 144 141 144 147 147 148 148 149 148 141 135 131 128 144 145 133 105 359 319 291 303 325 335 327 335 305 274 126 78 281 281 306 309 307 305 308 308 303 307 312 314 318 323 324 323 325 329 334 338 341 341 339 335 332 334 339 339 335 332 330 328 327 323 319 317 317 316 313 310 309 307
198 207 213 188 95 85 81 90 104 126 142 146 142 144 149 147 142 146 146 144 146 147 145 140 132 124 118 134 160 100 31 344 300 319 344 341 335 338 342 355 61 145 237 252 242 261 291 293 290 298 306 301 303 308 312 318 320 320 319 320 326 332 333 335 339 338 332 327 330 337 340 335 331 329 325 322 320 317 316 316 316 313 308 307 305
209 223 210 188 119 98 91 86 83 103 132 148 150 142 140 143 139 143 145 141 147 148 142 142 136 130 131 229 219 305 329 309 329 353 349 334 336 340 339 356 17 311 280 277 255 256 271 284 289 297 298 292 300 310 314 317 318 316 315 318 324 329 329 328 331 333 329 326 328 333 335 332 329 327 323 320 319 317 316 316 315 312 309 308 307
210 226 217 201 154 105 84 76 73 79 99 137 152 134 131 149 145 147 151 150 156 151 148 158 164 181 227 262 266 286 303 322 348 348 340 341 332 310 325 360 350 327 316 311 299 282 275 287 299 309 310 306 312 315 315 319 321 315 312 316 323 328 326 323 324 327 327 324 325 327 329 327 325 324 322 322 321 318 316 315 313 312 311 311 311
212 221 217 210 208 156 75 68 69 50 65 79 101 111 140 178 153 159 162 157 168 161 169 185 177 259 275 285 300 315 330 340 343 332 330 326 308 307 329 335 326 317 305 307 313 311 297 301 312 320 324 322 319 319 321 321 318 310 308 315 324 326 323 322 322 323 321 320 322 324 323 320 319 321 324 326 325 323 320 314 310 311 312 313 314
214 217 218 211 213 199 203 359 37 3 28 44 52 71 131 223 176 206 190 208 257 235 232 268 298 294 296 306 310 316 324 325 318 315 315 298 305 336 319 301 309 316 316 315 315 319 321 320 323 328 326 322 322 325 322 315 312 311 313 320 325 322 318 320 322 321 319 319 319 316 312 312 315 320 326 327 326 329 329 321 314 315 315 317 320
220 220 219 212 217 209 214 255 284 316 350 8 19 22 357 344 312 277 265 261 271 273 281 293 299 299 302 304 301 304 315 319 317 320 325 316 323 342 306 288 306 319 321 318 311 317 329 326 322 327 329 326 326 321 316 318 320 318 319 321 319 314 316 323 323 320 319 314 309 307 307 311 318 323 328 328 327 330 332 329 326 325 323 324 326
225 221 217 212 220 226 234 250 269 308 344 343 338 351 353 348 338 314 296 286 282 281 284 289 294 296 296 299 301 305 310 317 318 320 327 324 317 323 321 314 315 311 307 303 301 309 323 327 321 325 332 327 318 318 323 326 322 319 318 316 315 318 324 327 323 322 325 319 310 308 311 318 323 324 327 329 327 329 330 329 332 332 329 330 330
229 224 222 218 221 230 248 259 258 276 311 338 330 330 335 337 338 332 320 307 293 283 283 288 292 286 281 284 289 293 297 302 303 302 301 295 289 292 300 297 287 280 280 286 292 302 315 325 325 327 330 321 316 326 330 318 315 321 322 319 323 331 334 329 326 330 337 334 327 323 322 323 324 322 325 327 326 326 326 327 330 330 329 330 330
232 230 227 227 231 233 244 258 261 270 289 306 315 322 327 327 329 327 323 316 303 289 284 285 286 281 278 276 269 273 286 292 289 281 266 257 257 258 254 252 259 265 274 284 291 301 311 319 325 328 329 324 324 328 317 307 315 325 326 326 330 336 337 335 335 338 341 341 338 332 326 324 323 321 320 321 322 323 324 325 327 327 327 327 327
232 232 228 228 237 241 240 248 261 270 277 289 301 307 309 312 316 315 311 309 304 293 285 282 281 277 279 283 278 272 278 286 285 279 270 262 261 263 259 248 255 266 275 281 289 300 308 314 321 327 328 329 328 319 307 308 317 325 329 330 330 331 335 338 340 340 344 345 338 329 326 327 322 314 311 315 321 322 322 323 324 323 323 323 324
230 232 232 226 230 240 245 245 251 264 272 279 291 298 296 296 300 303 304 306 303 297 291 283 277 270 268 275 283 282 281 284 288 286 284 282 279 279 279 272 269 271 274 278 288 299 305 311 318 324 327 327 320 311 308 311 317 325 331 331 326 327 332 337 341 344 347 346 336 330 330 324 311 305 313 323 326 323 322 323 321 319 319 318 319
230 232 237 233 227 233 244 248 248 254 265 274 283 294 297 293 291 292 294 298 299 296 294 290 281 270 261 263 272 278 279 282 286 287 287 286 281 277 275 276 276 275 276 281 290 300 306 310 313 317 320 316 309 309 311 313 319 327 329 324 323 327 332 337 342 347 349 345 340 337 327 315 312 321 332 334 328 324 323 320 316 316 316 314 314
229 229 234 238 234 230 235 246 252 249 253 265 277 286 291 292 290 289 288 290 291 290 290 290 287 281 272 267 268 272 276 279 281 283 284 283 279 275 274 278 281 282 284 289 295 300 306 307 307 310 311 305 304 309 312 315 320 326 326 321 322 329 334 336 340 346 349 345 341 335 322 317 329 345 339 330 325 322 319 317 316 317 315 312 311
231 230 232 237 238 235 231 236 246 247 246 254 269 280 283 284 286 288 288 287 285 284 283 282 281 281 280 277 275 275 277 279 281 280 279 281 283 282 283 284 286 287 290 291 294 299 302 301 301 303 304 303 304 308 312 316 321 325 325 320 320 325 330 334 339 344 347 345 340 335 332 335 348 350 337 327 325 322 317 318 321 318 312 309 309
231 232 233 236 239 241 237 233 236 241 244 250 262 275 280 282 283 285 287 286 283 282 279 278 278 277 277 278 279 279 279 279 279 279 280 281 282 283 284 284 284 285 286 286 289 294 295 294 294 296 300 304 307 308 312 316 320 322 322 319 319 323 327 331 337 343 346 343 337 336 342 350 351 347 338 327 324 322 319 319 319 313 307 304 304
233 232 232 234 237 240 241 239 235 235 241 250 260 271 279 283 281 281 283 284 283 281 279 278 278 277 278 279 280 280 279 278 277 278 281 283 281 280 280 281 283 282 282 282 285 289 290 290 291 292 299 307 309 309 311 314 316 319 320 320 322 324 326 328 333 343 348 342 335 336 343 351 348 340 333 325 323 321 317 315 313 308 303 301 300
233 235 235 235 236 238 239 239 239 238 241 250 260 270 279 282 279 278 280 281 280 280 278 278 278 278 278 279 280 280 279 279 279 280 282 281 278 278 279 281 282 281 280 282 284 287 287 288 291 293 299 308 310 309 310 311 314 317 320 323 324 323 324 325 327 336 346 346 337 333 337 345 344 333 325 322 321 319 314 313 315 316 312 307 304
231 235 237 239 240 240 239 238 240 243 246 252 262 272 280 282 280 277 277 278 278 277 276 276 276 276 277 278 279 281 281 282 283 284 286 285 281 279 280 281 281 281 281 283 285 287 287 287 291 296 302 307 308 308 310 311 313 317 320 323 323 320 320 322 323 329 340 347 339 331 332 336 336 327 320 319 317 314 312 316 324 328 321 308 299
233 235 239 243 243 243 242 240 240 243 248 254 264 275 282 284 282 278 275 276 275 276 276 275 272 273 275 276 276 279 281 282 284 286 289 291 290 288 284 282 282 282 283 285 286 288 288 287 291 300 307 307 305 308 312 311 312 316 319 320 320 317 316 319 322 325 335 345 342 332 326 326 326 321 316 317 315 311 313 323 333 335 327 308 292
237 238 240 243 244 243 244 244 243 245 249 254 264 276 283 284 282 279 276 275 273 273 273 272 270 271 273 274 274 277 279 278 280 283 285 289 293 294 293 290 289 289 289 290 292 291 290 289 294 305 312 309 306 310 314 313 311 313 316 316 315 313 313 317 320 324 335 346 341 326 319 318 321 318 315 317 315 312 320 334 340 340 334 317 300
236 239 241 244 245 245 247 248 248 250 253 257 264 275 283 284 283 280 276 274 273 272 270 268 267 269 272 273 272 274 275 276 279 282 283 286 290 293 295 295 294 295 295 297 301 301 300 299 302 309 313 310 306 309 313 313 311 311 312 312 312 312 313 315 318 325 336 342 335 322 316 316 319 317 316 318 317 319 332 343 344 344 339 326 316
237 238 241 244 247 249 251 252 253 256 259 261 267 276 283 284 282 278 275 274 273 272 270 267 264 266 270 271 271 273 273 274 278 280 281 282 285 288 291 292 293 294 296 299 302 303 301 300 302 306 310 307 304 308 313 313 312 311 309 309 313 315 312 313 320 328 334 334 332 326 316 312 315 316 315 316 319 327 340 346 346 346 343 334 329
238 238 239 242 246 249 252 254 257 260 262 266 271 280 285 284 280 275 272 272 273 274 272 268 264 266 268 268 269 271 273 275 279 281 280 279 280 283 285 285 284 284 287 290 292 293 295 296 298 302 305 306 306 309 311 311 311 309 306 309 316 316 311 315 322 327 328 328 330 325 311 307 312 315 316 318 324 334 342 345 347 347 345 338 336
236 238 240 243 245 247 249 254 258 261 263 268 275 283 285 282 279 277 274 272 273 274 273 268 265 264 266 268 270 271 273 277 279 280 280 279 280 282 283 282 281 281 285 288 287 289 292 293 294 299 303 306 306 305 305 306 307 306 305 310 316 314 311 317 323 323 322 325 326 318 309 310 315 319 324 326 329 335 341 343 345 347 347 344 346
237 239 241 243 246 247 249 253 257 260 263 269 277 283 283 281 280 278 274 272 272 273 272 269 266 264 265 266 269 272 274 275 276 277 278 279 281 283 282 280 280 285 290 291 289 290 290 290 293 297 301 302 301 300 302 303 302 302 304 309 315 315 313 317 321 318 314 318 323 316 309 313 318 324 329 327 324 330 338 341 343 346 350 351 355